Regional Weather Roundup
Issued by NWS

Home | Current Version | Previous Version | Text Only | Print | Product List | Glossary Off
Versions: 1 2 3 4 5 6 7 8 9 10 11 12 13 14 15 16 17 18 19 20 21 22 23 24 25 26 27

000
ASUS45 KPSR 210510
RWRAZ

ARIZONA HOURLY REGIONAL WEATHER ROUNDUP
NATIONAL WEATHER SERVICE PHOENIX AZ
1000 PM MST SUN MAY 20 2018

NOTE: FAIR INDICATES FEW OR NO CLOUDS BELOW 12,000 FEET WITH NO
SIGNIFICANT WEATHER AND/OR OBSTRUCTIONS TO VISIBILITY.

AZZ001>003-036-210600-
NORTHWEST ARIZONA

CITY           SKY/WX    TMP DP  RH WIND       PRES   REMARKS
BULLHEAD CITY  PTCLDY    88  36  15 SE14      29.65R
KINGMAN          N/A     67  29  24 S9        29.84R
$$

AZZ004>008-015-016-018-210600-
NORTH CENTRAL ARIZONA

CITY           SKY/WX    TMP DP  RH WIND       PRES   REMARKS
GRAND CANYON   PTCLDY    45  10  24 NE3       30.05S
WILLIAMS       PTCLDY    57   9  14 SW5       30.04S
PRESCOTT       MOCLDY    63  20  19 S6        29.97R
FLAGSTAFF      MOCLDY    49  13  23 CALM      30.08R
PAYSON         PTCLDY    66  14  13 CALM      29.98S
PAGE           PTCLDY    78  14   9 SW8       29.85R
$$

AZZ009>014-017-210600-
NORTHEAST ARIZONA

CITY           SKY/WX    TMP DP  RH WIND       PRES   REMARKS
WINSLOW        MOCLDY    63  12  13 SW12      29.96R
SAINT JOHNS    MOCLDY    62  14  15 SW9       30.00R
WINDOW ROCK    MOCLDY    60   9  13 S5        30.06R
SHOW LOW       PTCLDY    57  14  18 S7        30.08R
$$

AZZ540-542>544-546-548-210600-
GREATER PHOENIX AREA

CITY           SKY/WX    TMP DP  RH WIND       PRES   REMARKS
PHOENIX        MOCLDY    87  22   9 W14       29.71R
BUCKEYE        PTCLDY    79  27  14 SW5       29.74R
LUKE AFB       PTCLDY    83  25  12 SW5       29.72R
DEER VALLEY    PTCLDY    83  18   9 SW8       29.74R
SCOTTSDALE     PTCLDY    85  25  11 W7        29.76R
MESA-GATEWAY   CLEAR     81  25  12 W5        29.76R
$$

AZZ539-553-210600-
SOUTHWEST MARICOPA COUNTY AND PINAL COUNTY

CITY           SKY/WX    TMP DP  RH WIND       PRES   REMARKS
CASA GRANDE    PTCLDY    81  29  15 W10       29.76R
GILA BEND      FAIR      82  31  16 SW8       29.72R
$$

AZZ503-504-507>509-210600-
SOUTHEAST ARIZONA

CITY           SKY/WX    TMP DP  RH WIND       PRES   REMARKS
TUCSON         CLEAR     79  21  11 SW6       29.87R
DAVIS-MONTHAN  CLEAR     76  17  11 SW7       29.85R
NOGALES        CLEAR     71  10   9 S6        29.95R
SIERRA VISTA   CLEAR     73   5   7 SW12      29.99
DOUGLAS        CLEAR     66  12  12 S7        29.96R
SAFFORD        CLEAR     78  13   8 NW10      29.82R
$$

AZZ532-210600-
SOUTHWEST ARIZONA

CITY           SKY/WX    TMP DP  RH WIND       PRES   REMARKS
YUMA           CLEAR     76  53  44 SW8       29.70R
$$

CAZ041-043-047-048-061-525>527-560>570-210600-
SOUTHERN CALIFORNIA

CITY           SKY/WX    TMP DP  RH WIND       PRES   REMARKS
DOWNTOWN L.A.  CLOUDY    63  52  67 CALM      29.88S
L.A. AIRPORT   CLOUDY    60  54  80 W8        29.89S
SAN DIEGO      CLOUDY    62  53  72 S8        29.93R
BURBANK        CLOUDY    62  54  74 S6        29.87S
ONTARIO        CLOUDY    60  52  74 W12       29.88R
RIVERSIDE      MOCLDY    60  54  80 W8        29.89R
PALM SPRINGS   MOCLDY    77  51  40 NW21      29.70S
EL CENTRO NAS  PTCLDY    78  45  30 W23       29.70R
IMPERIAL       PTCLDY    77  48  35 W17       29.67S
BLYTHE         PTCLDY    85  45  24 S16       29.68R
NEEDLES        PTCLDY    89  33  13 SW14      29.67R
$$

NVZ020-UTZ003-210600-
SOUTHERN NEVADA-UTAH

CITY           SKY/WX    TMP DP  RH WIND       PRES   REMARKS
LAS VEGAS      CLOUDY    84  37  18 S9        29.69R
SALT LAKE CITY PTCLDY    61  48  62 S5        29.90F
$$

NMZ009-TXZ055-210600-
NEW MEXICO-WEST TEXAS

CITY           SKY/WX    TMP DP  RH WIND       PRES   REMARKS
ALBUQUERQUE    PTCLDY    69  44  40 E21       30.04R
EL PASO        PTCLDY    78  52  40 E15G29    29.97R
$$


........................KEY........................
SKY/WX - SKY CONDITION/WEATHER
TMP    - TEMPERATURE IN FAHRENHEIT
DP     - DEW POINT IN FAHRENHEIT
RH     - RELATIVE HUMIDITY IN PERCENT
WIND   - DIRECTION AND SPEED IN MILES PER HOUR (MPH)
VRB    - VARIABLE WIND DIRECTION
PRES   - MEAN SEA LEVEL PRESSURE IN INCHES OF MERCURY
         F - FALLING PRESSURE   R - RISING PRESSURE
         S - STEADY PRESSURE
VSB    - VISIBILITY IN MILES
HX     - HEAT INDEX IN FAHRENHEIT
WCI    - WIND CHILL INDEX IN FAHRENHEIT
TC     - TEMPERATURE IN CELSIUS WHICH IS ALSO KNOWN AS
         TEMPERATURE IN CENTIGRADE
AFB    - AIR FORCE BASE
         LUKE AFB IS LUKE AIR FORCE BASE
         DAVIS-MONTHAN IS DAVIS-MONTHAN AIR FORCE BASE
NAS    - NAVAL AIR STATION
         EL CENTRO NAS IS EL CENTRO NAVAL AIR STATION
N/A    - NOT AVAILABLE





USA.gov is the U.S. government's official web portal to all federal, state and local government web resources and services.